Time,HIH7120,SHT85,AHT10,AHT10,AHT10,AHT10,AHT10,AHT10,AHT10,AHT10,AHT20,AHT20,AHT20,AHT20,AHT20,AHT20,AHT20,AHT20,AHT21,AHT21,AHT21,AHT21,AHT21,AHT21,AHT21,AHT21,AHT25,AHT25,AHT25,AHT25,AHT25,AHT25,AHT25,AHT25
21:35:53,56.38,56.81,55.11,55.42,54.87,56.21,54.74,56.69,54.07,55.68,54.29,54.25,55.12,54.84,54.21,55.23,54.87,54.39,52.03,50.27,49.33,50.66,49.78,51.81,48.50,50.21,60.64,58.28,58.44,62.88,59.42,58.60,55.35,60.63,
21:36:06,56.40,57.05,55.16,55.47,54.85,56.20,54.80,56.72,53.98,55.72,54.37,54.38,55.19,54.96,54.38,55.46,55.06,54.72,52.37,50.59,49.78,51.16,50.25,52.28,48.87,50.58,61.00,58.54,58.71,63.18,59.65,58.93,55.54,60.97,
21:36:20,56.72,57.38,55.45,55.71,55.09,56.43,55.03,56.90,54.29,55.87,54.55,54.61,55.35,55.04,54.53,55.65,55.22,54.98,52.38,50.56,49.61,50.81,49.70,51.74,47.95,50.11,59.19,56.16,53.75,56.02,53.34,50.92,47.15,49.16,
21:36:34,46.25,45.79,46.24,43.74,43.87,40.00,41.55,43.53,41.50,40.67,38.24,36.62,37.22,37.32,33.85,35.58,34.11,33.97,15.68,12.91,12.09,10.73,11.80,13.56,9.34,10.63,34.97,35.66,33.26,34.20,34.37,31.88,30.77,32.18,
21:36:48,22.81,24.10,22.88,21.37,20.59,18.69,20.77,24.48,21.20,20.65,19.94,19.89,19.05,18.99,18.04,19.13,18.99,17.90,11.61,6.59,8.56,7.45,8.97,11.75,7.42,8.36,28.39,30.00,28.09,30.62,29.64,27.38,27.35,27.93,
21:37:02,19.34,24.19,16.04,15.32,14.50,14.38,15.49,19.50,14.42,14.88,15.65,16.14,14.98,14.01,15.23,15.78,16.62,15.15,14.58,7.74,9.85,8.75,10.81,13.33,9.50,10.09,28.09,29.81,28.37,32.27,29.52,28.03,28.35,28.45,
21:37:15,20.12,28.58,14.56,13.60,13.11,13.37,14.27,18.24,12.34,13.08,15.41,16.54,15.08,13.73,16.61,16.66,18.19,16.46,22.97,13.60,16.12,15.94,17.55,20.53,15.61,17.16,31.80,33.42,32.30,37.75,32.68,32.47,32.30,32.69,
21:37:29,24.44,37.18,15.75,14.52,14.16,14.37,15.26,18.86,12.36,13.20,16.74,18.32,16.00,14.46,18.49,17.84,19.81,18.03,24.71,14.13,15.88,15.63,17.07,20.24,16.17,18.08,34.10,35.47,34.27,40.66,34.51,34.94,34.68,34.98,
21:37:43,26.69,41.74,15.86,14.20,13.92,13.96,15.01,18.42,11.73,12.55,16.99,19.39,16.29,14.69,19.60,18.67,21.22,19.27,28.36,17.53,18.38,18.27,19.69,22.90,19.14,21.22,36.66,37.84,36.67,43.72,36.68,37.78,36.93,37.70,
21:37:57,29.08,45.20,16.47,14.51,14.09,14.04,15.10,18.35,11.58,12.48,17.17,20.72,17.11,15.63,21.25,20.13,23.14,21.05,32.30,21.32,21.31,21.37,22.44,25.61,21.92,25.19,39.15,40.15,39.03,46.79,38.84,40.67,39.28,40.44,
21:38:11,31.82,48.44,17.43,15.26,14.70,14.41,15.64,18.62,11.76,12.61,18.71,22.32,18.22,16.85,22.99,21.54,25.09,22.98,36.46,25.42,24.43,24.87,25.55,28.50,25.11,28.78,41.96,42.59,41.54,49.68,41.12,43.65,41.68,43.24,
21:38:25,34.62,51.13,18.55,16.14,15.46,15.07,16.27,18.99,12.13,13.01,19.97,24.00,19.42,18.15,24.68,23.41,27.19,24.98,40.34,29.39,27.34,27.90,27.78,31.04,28.01,32.56,44.31,44.85,43.95,52.37,43.46,46.24,43.91,45.93,
21:38:38,37.41,53.47,19.78,17.12,16.44,15.79,16.93,19.47,12.57,13.46,21.40,25.74,20.75,19.56,26.63,25.20,29.27,27.00,43.88,33.24,30.50,31.39,30.78,33.88,31.12,36.06,46.84,46.98,46.24,54.90,45.77,48.95,46.17,48.52,
21:38:52,40.31,55.70,21.00,18.22,17.49,16.75,17.76,20.11,13.17,14.06,22.93,27.50,22.08,21.09,28.57,27.05,31.40,29.11,47.19,36.79,33.14,34.49,33.41,36.80,34.32,40.13,49.24,49.15,48.47,57.40,48.01,51.42,48.03,50.92,
21:39:06,43.24,57.60,22.32,19.45,18.54,17.67,18.59,20.74,13.82,14.71,24.47,29.41,23.62,22.77,30.55,28.94,33.59,31.23,50.36,40.39,36.17,37.97,36.24,39.78,36.87,42.96,51.55,50.91,50.61,59.76,50.26,53.66,49.99,53.25,
21:39:20,46.25,59.40,23.76,20.81,19.82,18.87,19.52,21.51,14.65,15.55,26.26,31.43,25.36,24.43,32.57,30.79,35.82,33.35,53.25,43.69,38.79,41.16,38.86,42.28,39.36,46.30,53.89,52.90,52.65,62.16,52.50,55.86,51.84,55.52,
21:39:34,49.03,60.91,25.20,22.21,21.14,20.09,20.53,22.31,15.55,16.36,27.71,33.21,27.00,26.18,34.42,32.55,37.95,35.45,55.89,46.74,41.47,44.06,41.08,44.96,42.24,49.54,55.99,54.68,54.59,64.26,54.53,57.77,53.56,57.44,
21:39:47,51.69,62.32,26.61,23.69,22.47,21.45,21.58,23.31,16.43,17.29,29.46,35.02,28.68,27.81,36.33,34.36,40.09,37.42,58.37,49.31,44.05,46.67,43.60,47.36,44.65,52.68,57.85,56.29,56.45,66.32,56.50,59.50,55.11,59.32,
21:40:01,54.25,63.53,27.98,25.11,23.85,22.83,22.63,24.27,17.38,18.23,31.10,36.84,30.43,29.49,38.05,36.21,42.04,39.32,60.50,51.68,46.27,48.90,45.67,49.43,47.05,55.13,59.77,57.82,58.17,68.28,58.34,61.16,56.53,60.93,
21:40:15,56.67,64.58,29.44,26.64,25.31,24.22,23.80,25.26,18.40,19.23,32.77,38.56,32.15,31.21,39.81,37.91,43.97,41.16,62.34,53.82,48.27,51.01,47.75,51.38,49.34,57.69,61.34,59.22,59.87,70.04,60.02,62.66,57.92,62.59,
21:40:29,59.02,65.57,31.01,28.32,26.86,25.64,25.06,26.26,19.55,20.35,34.43,40.31,33.98,32.99,41.57,39.59,45.96,43.02,64.15,55.87,50.20,53.11,49.65,53.21,51.77,60.02,62.95,60.63,61.48,71.68,61.55,64.15,59.09,64.22,
21:40:43,61.16,66.47,32.51,29.96,28.48,27.09,26.35,27.36,20.71,21.47,36.06,41.92,35.69,34.73,43.22,41.26,47.85,44.79,65.52,57.59,51.83,54.98,51.40,55.11,53.87,62.41,64.34,61.77,62.97,73.19,63.02,65.45,60.19,65.64,
21:40:57,63.14,67.28,34.03,31.57,30.11,28.54,27.69,28.42,21.90,22.64,37.74,43.46,37.47,36.37,44.88,42.88,49.62,46.51,66.69,58.95,53.32,56.62,53.09,56.90,55.78,64.55,65.67,62.89,64.26,74.30,64.31,66.57,61.11,66.77,
21:41:10,64.88,68.04,35.50,33.16,31.67,30.04,28.99,29.54,23.13,23.85,39.28,44.97,39.23,38.10,46.46,44.34,51.26,48.09,67.54,60.22,54.57,58.12,54.36,58.19,57.31,66.10,66.91,63.88,65.52,75.41,65.47,67.59,61.85,67.90,
21:41:24,66.44,68.68,36.94,34.74,33.26,31.55,30.30,30.71,24.37,25.08,40.79,46.51,40.94,38.10,47.84,45.80,52.91,49.56,68.50,61.29,55.82,59.49,55.70,59.45,58.83,67.54,68.00,64.92,66.63,76.35,66.53,68.56,62.67,68.86,
21:41:38,67.85,69.23,38.43,36.37,34.88,32.99,31.68,31.85,25.71,26.37,42.24,47.71,42.71,41.33,49.31,47.23,54.38,50.98,69.34,62.38,57.10,60.88,56.91,60.70,60.33,69.13,69.12,65.72,67.77,77.20,67.61,69.50,63.44,69.86,
21:41:52,69.12,69.73,39.78,37.88,36.41,34.29,32.96,32.93,26.95,27.60,43.58,49.04,44.34,41.33,50.57,48.51,55.79,52.28,70.10,63.22,58.04,61.90,57.94,61.73,61.66,70.28,70.07,66.53,68.72,78.02,68.50,70.22,64.16,70.65,
21:42:06,70.27,70.14,41.13,39.42,37.92,35.57,34.27,33.94,28.22,28.89,44.97,50.17,45.92,42.97,51.74,49.76,57.14,53.51,70.66,63.95,58.97,62.96,58.97,62.63,62.72,71.47,70.91,67.24,69.57,78.58,69.42,70.97,64.97,71.32,
21:42:20,71.30,70.49,42.44,40.88,39.44,36.86,35.57,34.97,29.50,30.19,46.17,51.35,47.48,44.42,52.94,50.90,58.33,54.63,71.21,64.67,59.73,63.87,59.73,63.51,63.69,72.31,71.80,67.88,70.37,79.28,70.26,71.59,65.53,72.09,
21:42:34,72.23,70.83,43.69,42.27,40.92,38.21,36.87,36.07,30.78,31.49,47.43,52.39,48.83,45.86,54.00,51.96,59.46,55.64,71.57,65.29,60.33,64.75,60.37,64.26,64.70,73.44,72.51,68.49,71.10,79.70,71.00,72.09,66.09,72.56,
21:42:48,73.03,71.18,44.93,43.60,42.36,39.48,38.12,37.15,32.07,32.84,48.57,53.37,50.32,47.13,55.02,52.94,60.48,56.63,72.05,65.69,61.06,65.70,61.18,65.11,65.47,74.39,73.16,69.09,71.77,80.17,71.67,72.55,66.58,73.03,
21:43:01,73.76,71.49,46.08,44.86,43.69,40.64,39.31,38.10,33.35,34.13,49.63,54.25,51.61,48.62,55.92,53.93,61.44,57.47,72.27,66.25,61.71,66.42,61.81,65.75,66.17,75.15,73.80,69.60,72.33,80.55,72.28,73.06,67.01,73.55,
21:43:15,74.37,71.70,47.17,46.06,44.99,41.80,40.45,39.09,34.51,35.39,50.55,55.17,52.78,49.88,56.73,54.78,62.29,58.26,72.52,66.43,61.98,66.94,62.21,66.04,66.64,75.67,74.34,70.08,72.75,80.77,72.70,73.40,67.36,73.89,
21:43:29,74.86,71.91,48.20,47.17,46.22,42.89,41.53,40.01,35.65,36.57,51.50,55.96,53.88,49.88,57.51,55.49,63.11,58.97,72.72,66.90,62.41,67.64,62.71,66.67,67.33,76.35,74.89,70.51,73.20,81.08,73.18,73.77,67.73,74.22,
21:43:43,75.35,72.06,49.20,48.24,47.43,43.92,42.57,40.94,36.77,37.73,52.41,56.69,54.99,49.88,58.25,56.27,63.75,59.64,72.92,67.15,62.79,68.13,63.11,67.02,67.80,76.87,75.34,70.86,73.62,81.28,73.60,74.04,68.10,74.52,
21:43:57,75.77,72.27,50.16,49.27,48.57,44.93,43.62,41.84,37.94,38.96,53.16,57.43,56.01,49.88,59.00,56.93,64.49,60.25,73.05,67.39,63.06,68.54,63.37,67.42,68.23,77.27,75.69,71.15,73.93,81.60,74.08,74.34,68.23,74.71,
21:44:11,76.18,72.35,51.05,50.23,49.67,45.87,44.57,42.68,39.02,40.10,53.94,58.02,56.94,49.88,59.49,57.56,65.03,60.87,73.13,67.59,63.24,68.82,63.51,67.55,68.63,77.55,75.99,71.45,74.20,81.74,74.42,74.48,68.44,74.94,
21:44:25,76.35,72.48,51.84,51.07,50.67,46.73,45.48,43.47,40.07,41.15,54.56,58.63,57.78,49.88,59.96,58.07,65.52,61.28,73.12,67.61,63.44,69.18,63.73,67.81,68.80,77.73,76.34,71.76,74.44,81.91,74.76,74.72,68.77,75.06,
21:44:38,76.62,72.52,52.61,51.91,51.66,47.58,46.39,44.22,41.07,42.18,55.20,59.13,58.54,49.88,60.49,58.60,66.05,61.76,73.32,67.75,63.77,69.49,64.03,67.98,69.27,78.11,76.60,71.94,74.64,82.00,75.07,74.84,68.91,75.26,
21:44:52,76.82,72.62,53.34,52.70,52.58,48.35,47.24,44.94,42.03,43.17,55.80,59.60,59.28,49.88,60.91,59.13,66.48,62.15,73.30,67.90,63.92,69.80,64.28,68.14,69.55,78.26,76.87,72.10,74.88,82.08,75.35,75.00,69.10,75.46,
21:45:06,77.01,72.70,54.05,53.49,53.47,49.14,48.05,45.67,43.06,44.22,56.32,60.04,59.99,49.88,61.30,59.58,66.83,62.48,73.33,67.99,63.98,69.92,64.34,68.23,69.69,78.45,77.12,72.36,74.98,82.21,75.61,74.87,69.06,75.63,
21:45:20,77.18,72.75,54.70,54.20,54.29,49.80,48.84,46.33,43.97,45.16,56.81,60.47,60.62,49.88,61.67,59.86,67.23,62.86,73.36,68.07,64.12,69.99,64.39,68.29,69.84,78.59,77.29,72.43,75.14,82.39,75.76,74.89,69.29,75.68,
21:45:34,77.30,72.76,55.37,54.95,55.13,50.50,49.66,47.04,44.93,46.12,57.28,60.89,61.25,49.88,62.08,60.41,67.61,63.18,73.70,68.38,64.34,70.59,64.82,68.80,70.28,79.07,77.51,72.60,75.38,82.35,75.98,74.87,69.27,75.65,
21:45:48,77.48,72.85,55.98,55.61,55.88,51.09,50.34,47.63,45.80,47.00,57.55,61.22,61.76,49.88,62.30,60.68,67.85,63.42,73.35,68.19,64.14,70.34,64.55,68.47,70.02,78.87,77.55,72.68,75.36,82.37,76.07,74.83,69.25,75.66,
21:46:01,77.50,72.85,56.51,56.17,56.50,51.59,50.94,48.15,46.61,47.79,57.92,61.47,62.24,49.88,62.57,60.96,68.09,63.74,73.39,68.27,64.37,70.73,65.00,68.96,70.58,79.33,77.87,72.87,75.64,82.66,76.40,74.97,69.47,76.04,
21:46:16,77.74,72.90,57.14,56.88,57.32,52.34,51.73,48.81,47.45,48.70,58.47,61.96,62.86,49.88,63.03,61.30,68.60,64.14,74.14,68.83,64.98,71.51,65.51,69.47,71.11,79.71,78.14,73.09,75.83,82.79,76.63,75.13,69.53,76.10,
21:46:29,77.99,73.02,57.68,57.46,58.02,52.96,52.37,49.38,48.24,49.52,58.81,62.29,63.36,49.88,63.31,61.63,68.81,64.41,74.15,68.96,65.00,71.40,65.60,69.41,71.21,79.85,78.29,73.28,76.06,82.93,76.87,75.38,69.68,76.21,
21:46:43,78.09,73.16,58.19,58.00,58.66,53.53,52.96,49.92,48.99,50.30,59.18,62.57,63.81,49.88,63.60,61.97,69.15,64.69,74.35,69.10,65.30,71.82,65.88,69.80,71.48,80.22,78.52,73.49,76.31,83.12,77.06,75.62,69.92,76.41,
21:46:57,78.31,73.24,58.71,58.58,59.31,54.15,53.59,50.46,49.77,51.12,59.62,62.97,64.36,49.88,63.86,62.30,69.47,64.98,74.64,69.46,65.64,72.27,66.24,70.21,71.88,80.60,78.79,73.63,76.53,83.43,77.33,75.83,70.06,76.66,
21:47:11,78.53,73.34,59.24,59.18,60.00,54.77,54.23,51.04,50.52,51.95,60.08,63.33,64.80,49.88,64.21,62.62,69.84,65.27,74.87,69.70,65.90,72.52,66.52,70.44,72.19,80.95,78.91,73.84,76.69,83.50,77.53,76.02,70.17,76.81,
21:47:25,78.74,73.48,59.75,59.75,60.70,55.42,54.85,51.59,51.29,52.77,60.42,63.65,65.28,49.88,64.61,62.99,70.13,65.64,74.99,69.91,66.09,72.74,66.64,70.62,72.44,81.25,79.12,74.06,76.87,83.68,77.72,76.25,70.32,76.96,
21:47:39,78.94,73.62,60.24,60.28,61.32,55.98,55.46,52.12,52.03,53.52,60.86,64.04,65.71,49.88,64.81,63.23,70.44,65.86,75.12,70.03,66.18,72.94,66.76,70.84,72.67,81.30,79.34,74.21,77.07,83.84,77.91,76.47,70.47,77.11,
21:47:53,79.11,73.73,60.71,60.81,61.89,56.49,56.03,52.61,52.74,54.24,61.21,64.26,66.11,49.88,65.09,63.53,70.69,66.16,75.21,70.09,66.36,73.09,66.87,71.00,72.83,81.56,79.54,74.38,77.18,83.93,78.17,76.68,70.60,77.21,
21:48:06,79.23,73.84,61.13,61.31,62.45,57.02,56.54,53.08,53.41,54.92,61.46,64.61,66.53,49.88,65.26,63.84,70.94,66.38,75.25,70.19,66.53,73.28,67.06,71.06,72.95,81.61,79.65,74.47,77.33,84.06,78.22,76.59,70.68,77.36,
21:48:20,79.36,73.89,61.55,61.75,62.96,57.47,57.03,53.51,54.03,55.57,61.79,64.89,66.87,49.88,65.50,64.02,71.12,66.55,75.33,70.25,66.52,73.24,67.07,71.16,73.01,81.73,79.93,74.61,77.43,84.10,78.27,76.67,70.76,77.41,
21:48:34,79.45,73.97,61.95,62.18,63.48,57.91,57.52,53.94,54.63,56.19,62.03,65.11,67.24,49.88,65.69,64.21,71.33,66.76,75.26,70.30,66.50,73.39,67.24,71.26,73.17,81.90,80.06,74.72,77.58,84.21,78.55,76.84,70.80,77.55,
21:48:48,79.55,74.03,62.28,62.56,63.93,58.27,57.95,54.31,55.19,56.79,62.32,65.32,67.50,49.88,65.84,64.38,71.48,66.90,75.29,70.33,66.58,73.43,67.10,71.21,73.12,81.89,80.07,74.80,77.61,84.22,78.55,76.97,70.88,77.58,
21:49:02,79.60,74.07,62.60,62.89,64.33,58.64,58.34,54.67,55.69,57.34,62.50,65.49,67.77,49.88,65.97,64.56,71.60,66.99,75.20,70.28,66.53,73.40,67.02,71.15,73.12,81.94,80.19,74.89,77.60,84.24,78.63,77.01,70.84,77.56,
21:49:16,79.62,74.10,62.90,63.20,64.71,58.96,58.71,54.99,56.19,57.82,62.67,65.59,67.97,49.88,66.13,64.68,71.72,67.14,75.06,70.10,66.40,73.25,67.02,71.02,73.08,81.85,80.23,74.84,77.58,84.15,78.64,77.10,70.92,77.61,
21:49:29,79.60,74.09,63.15,63.45,65.04,59.20,59.02,55.25,56.67,58.31,62.77,65.70,68.14,49.88,66.18,64.76,71.76,67.18,75.00,69.98,66.29,73.20,67.08,70.93,72.99,81.72,80.23,74.93,77.56,84.10,78.72,77.12,70.93,77.59,
21:49:44,79.60,74.06,63.37,63.69,65.35,59.46,59.32,55.54,57.10,58.75,62.90,65.82,68.33,49.88,66.21,64.87,71.86,67.26,74.91,70.02,66.35,73.07,66.94,70.91,72.96,81.65,80.27,74.80,77.52,84.07,78.73,77.19,70.91,77.57,
21:49:57,79.55,74.04,63.57,63.90,65.62,59.63,59.56,55.76,57.50,59.18,62.99,65.90,68.44,49.88,66.27,64.91,71.85,67.28,74.79,69.93,66.21,73.03,66.94,70.79,72.72,81.51,80.22,74.87,77.48,83.97,78.66,77.10,70.84,77.57,
21:50:11,79.50,74.00,63.75,64.08,65.87,59.81,59.81,55.97,57.86,59.56,63.02,65.93,68.47,49.88,66.29,64.94,71.80,67.27,74.64,69.79,66.10,72.91,66.67,70.64,72.71,81.41,80.20,74.84,77.40,83.86,78.66,77.01,70.80,77.47,
21:50:25,79.43,73.94,63.90,64.24,66.06,59.95,60.02,56.14,58.22,59.90,63.06,65.89,68.61,49.88,66.27,64.98,71.91,67.29,74.50,69.67,65.94,72.81,66.59,70.44,72.63,81.35,80.20,74.82,77.35,83.79,78.66,76.92,70.76,77.40,
21:50:39,79.33,73.89,64.02,64.38,66.27,60.07,60.20,56.30,58.52,60.21,63.05,65.92,68.62,49.88,66.31,65.03,71.84,67.29,74.39,69.63,65.94,72.64,66.59,70.39,72.47,81.22,80.14,74.76,77.29,83.70,78.53,76.68,70.68,77.38,
21:50:53,79.26,73.81,64.14,64.50,66.43,60.19,60.37,56.46,58.79,60.51,63.06,65.95,68.64,49.88,66.24,64.98,71.81,67.26,74.24,69.50,65.81,72.56,66.41,70.27,72.35,81.15,80.10,74.65,77.15,83.61,78.47,76.43,70.60,77.25,
21:51:07,79.16,73.74,64.23,64.56,66.56,60.26,60.49,56.58,59.02,60.75,63.05,65.90,68.72,49.88,66.19,64.95,71.80,67.28,74.19,69.33,65.64,72.48,66.33,70.15,72.27,80.97,79.98,74.60,77.12,83.46,78.44,76.11,70.55,77.18,
21:51:20,79.06,73.68,64.29,64.65,66.69,60.35,60.61,56.67,59.24,60.97,63.04,65.89,68.70,49.88,66.18,64.92,71.71,67.19,74.10,69.34,65.67,72.41,66.57,70.13,72.21,80.91,79.90,74.53,77.05,83.47,78.34,75.82,70.39,77.15,
21:51:34,78.96,73.59,64.38,64.71,66.79,60.43,60.69,56.78,59.43,61.19,62.98,65.89,68.66,49.88,66.08,64.93,71.69,67.11,73.90,69.17,65.63,72.29,66.49,69.95,71.96,80.81,79.88,74.46,77.00,83.26,78.31,75.53,70.39,76.97,
21:51:48,78.87,73.53,64.42,64.74,66.87,60.44,60.76,56.83,59.61,61.36,62.93,65.87,68.70,49.88,66.09,64.90,71.60,67.07,73.74,69.02,65.40,72.20,66.12,69.80,71.95,80.77,79.84,74.40,76.87,83.15,78.17,75.25,70.29,76.86,
21:52:02,78.74,73.44,64.46,64.76,66.95,60.50,60.84,56.90,59.78,61.53,62.89,65.81,68.61,49.88,65.99,64.84,71.57,67.03,73.71,68.94,65.30,72.10,66.07,69.73,71.80,80.60,79.67,74.30,76.79,83.05,78.06,75.03,70.15,76.89,
21:52:16,78.62,73.34,64.49,64.81,67.01,60.56,60.91,56.94,59.89,61.68,62.76,65.76,68.58,49.88,65.90,64.79,71.49,66.93,73.44,68.76,65.17,71.84,65.77,69.53,71.56,80.36,79.68,74.24,76.65,82.88,78.07,74.74,70.04,76.74,
21:52:30,78.50,73.27,64.49,64.80,67.05,60.55,60.93,57.00,60.02,61.80,62.77,65.69,68.57,49.88,65.83,64.73,71.40,66.94,73.33,68.58,65.02,71.69,65.68,69.39,71.42,80.20,79.53,74.09,76.54,82.76,78.03,74.47,70.02,76.59,
21:52:44,78.35,73.14,64.49,64.79,67.04,60.53,60.94,57.01,60.10,61.90,62.65,65.58,68.49,49.88,65.76,64.65,71.33,66.75,73.16,68.45,64.89,71.60,65.49,69.19,71.33,80.05,79.41,73.98,76.43,82.64,77.87,74.19,69.88,76.43,
21:52:57,78.21,73.05,64.49,64.79,67.09,60.49,60.96,57.03,60.21,62.01,62.50,65.46,68.38,49.88,65.65,64.62,71.20,66.70,73.05,68.41,64.79,71.46,65.35,69.07,71.14,79.93,79.35,73.90,76.39,82.53,77.68,74.09,69.73,76.30,
21:53:12,78.09,72.94,64.49,64.78,67.10,60.49,60.97,57.04,60.29,62.10,62.36,65.43,68.32,49.88,65.58,64.54,71.16,66.67,72.87,68.28,64.70,71.40,65.24,69.00,71.04,79.87,79.21,73.80,76.25,82.41,77.59,73.90,69.60,76.14,
21:53:25,77.96,72.86,64.47,64.75,67.11,60.45,60.98,57.05,60.38,62.19,62.31,65.36,68.28,49.88,65.50,64.40,71.00,66.58,72.75,68.13,64.56,71.19,65.11,68.82,70.79,79.70,79.03,73.63,76.16,82.28,77.45,73.79,69.51,76.00,
21:53:39,77.84,72.73,64.44,64.72,67.08,60.43,60.97,57.03,60.45,62.25,62.20,65.29,68.21,49.88,65.39,64.33,70.93,66.50,72.69,68.08,64.48,71.12,65.03,68.76,70.73,79.62,78.94,73.57,76.02,82.14,77.41,73.72,69.37,75.86,
21:53:53,77.74,72.65,64.45,64.70,67.10,60.42,60.96,57.04,60.51,62.28,62.08,65.20,68.13,49.88,65.32,64.27,70.85,66.44,72.65,67.98,64.46,71.06,64.94,68.68,70.72,79.58,78.89,73.47,75.90,82.05,77.27,73.63,69.29,75.72,
21:54:07,77.62,72.57,64.42,64.69,67.10,60.42,60.97,57.04,60.57,62.36,62.02,65.16,68.07,49.88,65.25,64.19,70.77,66.29,72.59,67.91,64.38,70.89,64.82,68.55,70.60,79.47,78.74,73.34,75.82,81.94,77.20,73.47,69.18,75.64,
21:54:21,77.50,72.46,64.39,64.71,67.08,60.40,60.95,57.04,60.62,62.40,61.95,65.05,68.01,49.88,65.16,64.08,70.71,66.25,72.35,67.79,64.28,70.83,64.83,68.41,70.48,79.31,78.63,73.25,75.71,81.80,77.09,73.55,69.11,75.36,
21:54:35,77.43,72.36,64.36,64.69,67.08,60.38,60.95,57.04,60.66,62.44,61.84,64.92,67.91,49.88,65.04,64.03,70.60,66.13,72.24,67.61,64.17,70.72,64.77,68.30,70.33,79.21,78.54,73.11,75.61,81.67,76.95,73.63,69.00,75.35,
21:54:48,77.26,72.30,64.31,64.65,67.07,60.36,60.91,57.01,60.70,62.49,61.68,64.85,67.87,49.88,64.95,63.89,70.53,66.06,72.15,67.61,64.11,70.60,64.70,68.29,70.24,79.18,78.48,73.03,75.50,81.58,76.85,73.71,68.93,75.33,
21:55:02,77.18,72.24,64.31,64.64,67.07,60.33,60.92,57.01,60.73,62.53,61.60,64.82,67.80,49.88,64.87,63.83,70.44,65.99,72.14,67.50,64.03,70.50,64.66,68.21,70.21,79.12,78.35,72.91,75.41,81.44,76.74,73.84,68.87,75.33,
21:55:16,77.11,72.14,64.27,64.60,67.07,60.32,60.92,57.01,60.77,62.56,61.53,64.75,67.74,49.88,64.82,63.75,70.40,65.93,72.03,67.47,63.92,70.49,64.52,68.12,70.12,78.97,78.21,72.79,75.36,81.43,76.67,73.91,68.74,75.31,
21:55:30,76.99,72.07,64.26,64.59,67.05,60.30,60.90,57.00,60.81,62.62,61.49,64.65,67.71,49.88,64.75,63.69,70.27,65.81,71.95,67.43,63.90,70.30,64.41,67.99,69.94,78.86,78.09,72.69,75.24,81.27,76.60,73.97,68.58,75.24,
21:55:44,76.86,71.99,64.23,64.54,67.03,60.27,60.88,56.98,60.81,62.65,61.33,64.60,67.62,49.88,64.64,63.64,70.23,65.79,71.85,67.33,63.75,70.25,64.24,67.84,69.82,78.75,77.99,72.57,75.12,81.18,76.50,74.03,68.48,74.98,
21:55:58,76.77,71.93,64.19,64.51,67.03,60.23,60.83,56.95,60.84,62.67,61.23,64.51,67.61,49.88,64.57,63.55,70.18,65.70,71.74,67.17,63.68,70.00,64.08,67.73,69.76,78.66,77.92,72.49,75.07,81.03,76.34,74.05,68.39,74.89,
21:56:11,76.67,71.83,64.15,64.46,66.98,60.20,60.83,56.93,60.86,62.69,61.12,64.41,67.50,49.88,64.54,63.54,70.07,65.65,71.61,67.17,63.60,69.99,64.17,67.62,69.70,78.61,77.78,72.39,74.94,80.95,76.28,73.96,68.33,74.85,
21:56:25,76.60,71.77,64.14,64.46,66.99,60.17,60.81,56.92,60.90,62.71,61.04,64.37,67.42,49.88,64.47,63.39,70.02,65.57,71.58,67.10,63.60,69.97,64.09,67.63,69.69,78.48,77.66,72.31,74.88,80.86,76.21,74.05,68.25,74.81,
21:56:40,76.50,71.67,64.11,64.45,66.96,60.15,60.81,56.91,60.92,62.74,60.97,64.25,67.41,49.88,64.37,63.32,69.88,65.52,71.53,67.03,63.59,69.99,64.03,67.58,69.55,78.57,77.66,72.18,74.81,80.76,76.09,74.02,68.06,74.65,
21:56:53,76.43,71.63,64.09,64.42,66.95,60.15,60.79,56.89,60.94,62.77,60.95,64.22,67.36,49.88,64.31,63.29,69.83,65.49,71.48,66.97,63.43,69.85,63.90,67.52,69.56,78.44,77.54,72.12,74.77,80.68,76.02,73.93,68.05,74.61,
21:57:07,76.35,71.56,64.04,64.40,66.94,60.10,60.78,56.89,60.96,62.79,60.82,64.12,67.29,49.88,64.27,63.23,69.93,65.36,71.35,66.89,63.47,69.67,63.82,67.42,69.36,78.40,77.45,72.03,74.67,80.61,75.90,73.93,67.96,74.49,
21:57:21,76.28,71.48,64.03,64.37,66.91,60.06,60.74,56.85,60.99,62.80,60.71,64.06,67.23,49.88,64.14,63.14,69.77,65.31,71.25,66.80,63.33,69.63,63.73,67.25,69.36,78.27,77.42,71.89,74.60,80.45,75.88,73.92,67.87,74.53,
21:57:35,76.18,71.43,64.00,64.32,66.86,60.03,60.71,56.82,61.00,62.83,60.61,64.02,67.18,49.88,64.13,63.15,69.76,65.20,71.18,66.78,63.32,69.50,63.76,67.28,69.12,78.19,77.29,71.81,74.51,80.43,75.77,73.84,67.76,74.38,
21:57:49,76.13,71.36,63.95,64.28,66.85,60.01,60.69,56.80,60.99,62.83,60.58,63.99,67.11,49.88,64.08,62.98,69.60,65.17,71.16,66.65,63.29,69.35,63.76,67.19,69.07,78.12,77.20,71.73,74.40,80.33,75.69,73.82,67.72,74.27,
21:58:03,76.08,71.27,63.93,64.25,66.82,59.95,60.65,56.77,61.00,62.84,60.41,63.85,67.07,49.88,63.91,62.94,69.55,65.13,71.02,66.66,63.17,69.37,63.62,67.19,69.07,77.98,77.15,71.67,74.31,80.21,75.61,73.73,67.60,74.17,
21:58:16,76.03,71.22,63.88,64.22,66.78,59.94,60.62,56.74,61.01,62.84,60.38,63.77,67.02,49.88,63.90,62.88,69.57,65.08,70.98,66.58,63.11,69.35,63.55,67.14,69.03,78.07,77.04,71.56,74.32,80.11,75.52,73.69,67.56,74.09,
21:58:30,75.96,71.17,63.83,64.18,66.76,59.89,60.58,56.73,61.00,62.82,60.32,63.75,66.94,49.88,63.87,62.77,69.45,65.00,70.89,66.47,63.00,69.25,63.48,67.03,68.95,77.85,76.94,71.44,74.17,80.05,75.42,73.57,67.49,74.05,
21:58:44,75.84,71.07,63.79,64.12,66.70,59.84,60.54,56.68,61.00,62.85,60.25,63.71,66.87,49.88,63.77,62.77,69.40,64.93,70.81,66.38,63.02,69.19,63.47,67.02,68.88,77.89,76.86,71.43,74.16,79.96,75.36,73.61,67.39,74.01,
21:58:58,75.77,71.05,63.74,64.08,66.68,59.83,60.51,56.65,61.02,62.87,60.13,63.71,66.82,49.88,63.68,62.67,69.41,64.82,70.76,66.26,63.04,69.04,63.42,66.87,68.77,77.70,76.72,71.28,74.02,79.86,75.24,73.52,67.37,73.76,
21:59:12,75.69,70.97,63.71,64.06,66.64,59.77,60.47,56.62,61.00,62.86,60.03,63.56,66.77,49.88,63.63,62.63,69.23,64.78,70.68,66.28,62.93,68.96,63.43,66.75,68.63,77.62,76.70,71.21,74.01,79.73,75.14,73.42,67.23,73.77,
21:59:26,75.60,70.91,63.66,64.01,66.60,59.72,60.42,56.58,60.99,62.85,60.01,63.51,66.72,49.88,63.57,62.55,69.16,64.74,70.66,66.15,62.84,68.74,63.22,66.74,68.60,77.59,76.63,71.11,73.90,79.69,75.07,73.37,67.17,73.69,
21:59:39,75.52,70.82,63.61,63.97,66.55,59.68,60.37,56.54,60.98,62.85,59.82,63.41,66.65,49.88,63.47,62.48,69.26,64.67,70.57,66.10,62.75,68.68,63.31,66.61,68.49,77.53,76.50,71.04,73.80,79.56,75.03,73.23,67.14,73.54,
21:59:53,75.42,70.75,63.58,63.93,66.51,59.62,60.32,56.51,60.94,62.84,59.76,63.33,66.59,49.88,63.43,62.41,69.02,64.61,70.49,66.11,62.76,68.67,63.25,66.57,68.50,77.45,76.42,71.02,73.75,79.49,74.96,73.24,67.10,73.53,
22:00:07,75.38,70.74,63.53,63.89,66.49,59.58,60.31,56.50,60.95,62.83,59.72,63.24,66.53,49.88,63.39,62.31,69.09,64.60,70.44,66.04,62.71,68.58,63.04,66.58,68.53,77.37,76.33,70.90,73.67,79.44,74.88,73.16,67.00,73.44,
22:00:21,75.30,70.68,63.49,63.85,66.46,59.55,60.28,56.45,60.91,62.84,59.65,63.19,66.47,49.88,63.32,62.30,68.93,64.51,70.28,65.98,62.67,68.51,63.07,66.43,68.33,77.37,76.37,70.78,73.57,79.38,74.80,73.13,66.94,73.43,
22:00:35,75.25,70.63,63.45,63.79,66.39,59.49,60.23,56.42,60.94,62.81,59.57,63.14,66.44,49.88,63.25,62.20,68.85,64.46,70.30,65.91,62.52,68.30,63.09,66.30,68.32,77.31,76.20,70.75,73.51,79.19,74.72,72.98,66.72,73.25,
22:00:49,75.16,70.55,63.40,63.78,66.36,59.45,60.18,56.38,60.92,62.80,59.45,63.08,66.32,49.88,63.17,62.18,68.81,64.38,70.23,65.83,62.44,68.23,62.93,66.27,68.11,77.18,76.14,70.71,73.48,79.21,74.54,72.98,66.71,73.14,
22:01:03,75.08,70.49,63.37,63.73,66.33,59.39,60.16,56.33,60.90,62.80,59.43,63.05,66.35,49.88,63.13,62.11,68.86,64.33,70.09,65.76,62.36,68.25,62.99,66.26,68.15,77.18,76.03,70.63,73.34,79.06,74.42,72.89,66.65,73.05,